User: anonymous   Login
Location: Newark
(39.0622°N, 106.5590°E)
Time: 13:15:03
(UTC+00:00)
Language:

Vanguard 3 - Orbit

View from above orbital plane
View from above orbital plane
View from above satellite
View from above satellite

Ground track
Ground track

The orbit data is extracted from the following two-line orbital elements,

1    20U 59007A   20019.35085618 -.00000063  00000-0 -35797-4 0  9997
2    20  33.3493 356.7695 1667316 190.5226 165.5812 11.55687491213264
Epoch (UTC): 19 January 2020 08:25:13
Eccentricity: 0.1667316
inclination: 33.3493°
perigee height: 508 km
apogee height: 3263 km
right ascension of ascending node: 356.7695°
argument of perigee: 190.5226°
revolutions per day: 11.55687491
mean anomaly at epoch: 165.5812°
orbit number at epoch: 21326

The dashed part of the orbit path shows where the satellite is in the earth's shadow,  

DLR